Theta_e
305 306 307 308 307 305 305 305 305 304 304 304 302 302 305 306 299 295 304 308 304 306 308 309 312 311 311 311 318 321 322 325 326 325 326 325 327 332 334 331 334 336 335 337 339 340 342 344 346 351 353 353 353 353 354 354 356 359 362 362 361 361 359 358 357 356 356 356 356 356 356 354 353 353 353 352 353 355 356 355 356 355 357 358 357 357 357
303 305 307 308 307 308 306 305 305 305 304 303 304 303 306 306 305 309 313 306 308 310 309 310 310 314 314 318 319 319 321 323 323 323 326 330 335 337 335 334 335 335 336 336 336 338 340 343 346 352 353 353 353 354 354 354 355 357 360 360 360 360 359 358 357 356 356 356 356 356 356 355 354 353 353 353 352 353 356 356 355 355 355 356 357 357 357
301 304 306 306 307 306 307 307 306 306 305 304 305 304 305 308 306 307 311 310 309 310 310 313 316 315 316 313 314 314 314 316 320 322 324 327 331 336 338 338 338 339 341 341 340 340 343 345 347 350 352 353 354 355 355 355 355 356 358 359 360 359 359 359 358 357 356 356 356 355 355 356 355 353 352 353 352 352 354 356 356 355 355 354 356 357 357
297 304 305 305 305 306 304 305 306 305 304 302 303 303 305 304 304 306 308 305 306 307 313 313 313 314 314 312 312 314 316 315 316 317 322 322 325 333 337 340 343 344 346 347 345 343 345 348 348 349 350 352 354 354 355 356 356 357 357 358 358 358 359 359 359 358 357 356 356 355 354 355 355 354 352 352 352 352 352 355 357 356 355 354 354 357 358
294 302 305 304 304 302 299 301 304 307 308 306 306 306 307 307 310 304 303 304 310 311 314 311 311 314 314 314 315 316 317 316 316 316 318 321 322 325 329 335 340 346 348 350 350 350 349 350 351 350 350 351 352 354 354 356 357 356 356 356 357 357 358 359 359 359 358 357 356 355 354 354 355 355 353 351 351 351 351 354 357 356 356 355 353 355 357
292 298 301 303 298 291 293 310 310 309 306 306 303 303 305 307 308 305 308 311 316 315 312 311 311 313 313 314 315 317 315 314 314 316 318 321 322 324 329 332 331 331 336 347 350 351 351 351 352 352 353 350 351 353 354 355 355 355 355 355 356 357 357 358 360 360 359 357 357 356 356 355 355 355 353 351 351 352 353 353 354 356 357 356 355 353 355
290 295 299 296 290 292 309 310 310 312 310 311 308 307 307 307 308 310 310 312 313 315 316 316 315 316 317 317 316 317 321 318 316 318 319 319 323 328 334 333 337 341 335 335 345 346 346 346 345 346 348 350 351 350 350 351 353 353 354 354 355 356 356 357 360 360 359 358 357 357 357 356 355 355 354 353 352 352 352 352 352 355 356 356 356 355 354
294 295 299 289 290 303 308 310 311 315 312 311 311 308 310 311 310 310 310 312 313 313 313 315 316 315 316 316 316 315 315 315 321 331 328 329 341 340 341 333 336 335 339 345 344 343 347 346 344 344 345 346 349 349 349 349 350 351 352 352 353 357 356 357 359 361 360 359 358 358 358 357 356 355 355 354 353 353 353 353 353 354 355 357 357 356 356
288 293 299 295 305 302 306 307 308 307 306 308 303 298 307 316 317 317 314 313 314 314 315 314 315 315 315 313 313 317 324 329 333 338 341 342 343 343 343 343 341 342 346 343 346 351 345 345 344 343 344 346 346 347 347 346 348 349 351 351 351 357 357 357 360 362 361 360 359 359 359 358 357 356 356 356 356 355 353 352 352 353 353 355 357 357 357
294 289 291 297 295 293 297 303 307 313 313 312 313 309 308 316 318 321 319 312 313 313 314 314 314 316 314 314 318 327 330 331 331 334 341 343 343 341 338 339 345 346 345 345 348 344 340 344 342 342 345 345 344 343 344 345 345 347 348 350 351 356 358 358 360 362 362 361 360 360 360 359 359 359 358 359 358 358 354 353 352 353 353 354 355 357 357
290 291 289 293 293 298 300 303 309 312 312 313 313 309 305 314 318 323 323 318 318 318 315 313 313 312 312 313 319 327 331 331 334 338 341 342 343 343 340 338 341 347 346 352 352 349 348 349 350 343 345 344 345 343 344 344 344 344 345 348 351 353 359 360 361 363 364 363 362 361 360 361 361 360 360 360 360 361 358 356 354 354 354 354 354 355 357
291 291 289 289 296 295 301 306 309 312 315 314 308 297 300 312 318 322 322 322 322 322 322 322 320 317 313 315 321 330 333 335 339 342 342 342 343 342 342 343 344 349 354 352 349 351 357 357 359 355 349 342 346 345 345 343 342 342 344 346 351 353 360 361 362 363 365 364 363 362 361 362 363 362 362 362 362 362 361 359 357 355 355 355 355 355 356
291 293 291 294 300 304 305 306 311 312 314 310 300 295 307 314 319 321 322 322 323 324 322 322 318 320 323 324 328 333 334 335 337 341 342 341 340 338 339 348 356 350 351 352 351 349 354 360 360 360 358 357 355 348 352 346 341 343 345 346 352 354 359 362 362 363 365 364 364 363 364 364 364 364 364 362 362 362 361 361 359 356 356 355 356 356 357
288 290 292 290 299 303 305 307 311 314 312 301 299 312 315 318 318 320 321 320 322 324 323 323 323 325 327 329 331 332 334 335 336 338 339 340 340 339 341 356 353 348 349 349 351 351 355 358 359 360 359 358 358 356 359 353 348 347 348 348 353 355 358 361 361 363 364 365 366 366 365 365 365 364 365 364 363 362 362 361 358 356 355 354 355 356 357
292 293 289 288 284 300 307 306 308 311 305 305 313 315 317 316 316 317 318 319 320 322 323 325 325 326 327 327 329 331 333 334 335 336 337 338 340 340 343 347 350 351 350 351 352 353 357 357 358 357 357 358 358 358 355 359 364 363 355 350 354 355 358 360 360 361 364 365 366 368 367 367 365 364 365 364 363 362 361 360 359 357 356 355 354 353 353
287 288 286 289 304 303 307 305 301 309 310 315 315 314 311 314 314 314 316 317 319 321 323 323 324 326 327 327 328 330 332 334 336 338 338 340 344 345 347 347 347 350 349 350 354 357 357 358 357 360 358 358 359 359 355 360 363 366 366 353 355 355 356 359 360 360 363 366 367 367 367 367 366 365 364 364 362 362 361 360 359 358 357 356 354 353 352
294 292 297 302 304 306 306 307 307 307 310 314 315 313 314 310 311 315 314 314 316 320 323 324 324 325 328 328 329 328 330 334 335 338 340 342 343 345 345 345 346 347 348 348 353 352 352 353 356 357 363 361 360 358 361 367 362 360 367 360 356 355 356 358 359 360 363 366 366 366 367 368 365 364 364 363 361 361 361 360 359 358 357 357 355 354 353
303 301 300 305 308 306 306 308 310 308 309 312 313 312 311 311 311 313 313 314 315 316 323 322 323 325 327 328 329 330 331 333 335 340 341 343 344 345 344 344 345 347 349 349 351 350 350 352 353 359 358 358 355 356 361 364 363 361 365 362 358 356 357 360 361 362 363 365 365 365 366 367 367 366 365 363 362 361 361 360 360 359 357 357 356 356 355
293 290 304 302 302 306 305 305 312 313 310 311 313 312 312 312 313 313 314 313 314 315 319 320 321 324 328 328 329 330 331 332 334 337 340 343 343 343 342 344 348 348 348 348 348 349 347 350 352 354 356 356 357 359 360 362 363 364 364 364 363 360 358 360 361 363 363 363 364 364 365 366 367 367 366 365 362 359 361 361 360 358 358 357 356 356 356
295 295 299 302 305 308 307 308 306 307 312 313 312 312 314 314 314 314 313 313 313 315 315 316 318 322 326 327 328 329 329 331 332 335 338 341 342 343 344 345 347 348 348 346 346 346 346 348 350 352 353 354 356 357 361 363 364 364 367 363 363 363 362 361 360 361 362 372 367 363 361 359 361 365 366 365 362 360 360 360 358 358 357 356 355 356 356
296 299 301 303 304 307 305 306 307 311 309 310 311 313 314 315 312 313 314 314 313 314 314 315 315 318 323 327 328 328 329 331 332 333 336 339 341 342 344 343 347 346 346 346 345 346 346 348 349 349 349 351 354 356 357 361 362 361 363 366 363 362 363 362 361 362 363 365 362 344 330 321 315 312 314 322 351 334 324 325 351 361 358 357 356 354 346
291 292 297 303 297 298 300 303 306 308 309 308 309 311 310 313 315 314 312 313 314 314 315 313 314 314 318 324 327 328 329 330 332 333 336 339 341 342 345 345 346 346 346 344 344 343 344 345 346 346 347 348 350 355 356 359 360 361 360 360 361 359 361 359 359 359 360 361 350 339 333 326 321 318 311 301 306 329 325 319 310 318 332 347 339 328 322
290 297 299 301 300 300 306 304 306 307 307 309 308 308 309 311 315 319 313 311 311 314 314 315 314 312 315 317 325 327 328 329 331 333 336 339 340 341 343 343 342 343 343 346 344 343 343 344 343 344 343 346 348 352 353 355 358 358 359 357 356 355 356 355 354 357 355 355 347 341 338 334 330 326 322 317 302 299 306 308 307 308 307 308 311 317 324
300 301 301 302 301 299 302 305 306 306 309 308 308 310 310 312 312 314 314 314 312 312 314 315 316 315 315 317 323 325 328 330 331 332 335 340 341 342 343 343 342 342 342 342 342 342 342 343 344 345 344 344 345 349 351 352 355 355 356 355 353 352 353 353 356 357 358 356 350 344 339 335 331 329 325 322 321 308 301 304 304 302 303 304 305 307 310
297 301 302 303 303 303 304 305 306 307 308 310 307 308 309 309 311 312 311 312 315 315 313 314 316 318 316 317 321 326 328 330 332 334 339 343 342 342 341 342 343 342 341 342 343 341 341 343 346 345 342 343 346 347 348 350 353 352 352 353 353 352 354 356 356 358 359 357 350 345 340 336 332 330 327 325 323 323 319 305 301 302 302 302 303 304 305
302 302 303 303 303 303 305 305 304 305 306 308 307 308 311 316 313 314 313 313 313 315 315 314 315 317 319 318 321 327 328 329 333 335 334 336 338 339 340 342 343 343 341 341 341 341 341 340 340 341 342 342 343 344 346 349 351 350 350 352 353 352 353 353 354 355 357 357 351 347 344 339 335 332 329 327 325 325 325 326 325 314 304 300 299 301 301
302 303 302 300 300 301 303 301 301 305 306 307 307 307 308 308 313 313 311 312 313 313 313 314 314 314 317 320 326 329 328 330 331 331 332 334 337 340 342 343 343 341 341 340 340 341 342 340 339 338 339 342 343 344 345 347 349 350 350 352 353 359 360 359 351 352 354 356 356 352 348 341 335 331 329 328 328 328 326 325 326 326 327 325 313 310 314
301 301 301 297 297 299 301 304 306 306 307 307 307 307 308 308 308 307 307 308 309 312 314 314 314 314 315 319 325 327 329 328 328 330 331 334 337 341 342 342 341 340 340 339 338 340 340 339 339 338 338 340 342 342 342 342 342 342 344 348 349 347 347 348 347 349 348 346 352 356 350 342 337 333 332 331 330 329 326 328 328 328 328 328 326 312 304
300 301 302 303 302 303 305 306 306 305 305 306 308 308 308 307 306 306 307 307 309 309 311 312 315 316 316 319 326 326 327 328 328 329 332 336 340 339 340 340 339 341 340 339 339 338 338 338 338 338 338 341 342 344 342 342 342 342 341 343 344 344 344 344 345 343 345 345 345 344 341 341 339 336 334 332 331 331 332 333 332 331 329 331 333 332 327
301 302 302 302 304 304 304 303 303 304 304 305 305 306 306 306 305 305 306 307 308 308 309 311 312 313 316 320 325 327 327 328 330 332 334 335 337 339 338 339 339 340 340 339 337 338 338 338 339 338 339 342 342 341 340 340 340 341 340 340 339 339 341 344 344 342 341 340 339 337 338 339 338 335 332 332 333 334 334 334 333 331 328 328 327 327 326
304 303 303 303 303 304 303 303 304 305 305 305 305 305 306 306 305 305 306 307 309 309 310 311 311 312 315 324 326 327 329 329 328 329 333 335 337 337 337 337 335 334 335 335 335 336 337 339 338 338 341 343 341 341 340 339 338 339 338 338 338 333 332 335 336 339 340 340 339 338 338 336 335 335 334 334 334 333 332 331 329 328 327 326 326 325 325
306 304 304 303 303 303 304 304 304 304 305 306 305 305 305 305 304 305 306 308 308 308 309 310 311 312 316 326 328 327 325 326 325 324 328 333 334 333 334 334 334 334 332 331 331 332 333 334 333 334 335 336 341 343 341 340 338 337 337 343 340 338 334 332 336 336 338 339 337 336 336 335 334 334 334 334 334 333 331 329 328 327 326 325 324 326 324
305 303 302 303 304 304 304 305 305 304 305 305 306 306 307 307 307 308 308 309 309 310 310 311 312 315 325 327 326 326 325 324 323 322 322 322 326 330 330 332 330 328 327 327 327 328 329 330 331 333 332 334 334 335 340 341 340 338 338 339 338 337 340 331 331 335 338 337 335 335 335 335 336 336 334 333 332 331 330 329 328 327 325 325 323 323 320
302 303 306 307 306 304 304 305 306 306 306 307 307 308 308 309 310 310 310 311 311 310 311 312 315 324 326 326 325 325 324 322 319 317 317 318 318 321 327 328 327 326 325 325 325 325 327 330 330 330 331 333 335 336 337 340 341 340 340 338 337 336 336 335 334 336 335 334 334 337 336 334 333 332 332 333 332 331 330 330 329 328 327 326 325 324 312
305 305 307 307 310 311 310 309 308 308 307 306 307 308 309 310 310 310 312 312 311 314 320 324 325 324 326 326 324 323 322 319 318 317 317 317 316 317 320 323 323 323 320 321 322 324 327 329 329 329 329 330 331 332 331 331 332 335 336 336 334 333 332 333 332 333 333 334 335 334 333 332 332 337 335 332 331 331 330 330 330 330 329 328 326 326 322
304 303 304 306 308 310 311 312 311 310 309 308 308 309 309 310 310 311 311 312 319 322 322 323 324 324 321 321 323 320 318 317 316 315 315 316 315 316 316 317 317 316 316 317 319 323 325 328 332 331 327 326 326 327 329 329 329 330 330 330 329 329 328 328 328 328 328 328 329 331 333 337 336 333 333 329 329 329 329 329 329 330 329 329 329 327 326
303 303 303 304 305 306 307 309 312 314 313 313 312 310 311 311 312 312 314 322 321 320 318 316 314 313 312 313 315 318 317 316 315 313 313 314 314 312 312 312 313 314 314 313 317 322 323 326 329 328 325 324 323 323 325 329 325 324 325 326 325 325 324 324 324 324 324 325 325 326 326 325 324 324 327 328 329 328 328 328 329 328 328 330 331 330 329
302 303 303 304 304 305 305 307 309 310 314 315 315 315 316 315 313 316 321 319 319 316 315 313 312 312 312 312 312 313 313 311 311 310 310 311 311 310 310 310 310 312 311 312 318 322 322 323 326 324 321 321 321 321 323 324 326 320 320 320 320 320 320 319 319 319 319 320 322 321 320 319 319 319 320 321 322 322 324 325 326 325 323 322 322 321 322
301 302 302 303 304 304 304 306 307 308 308 307 308 309 313 319 319 316 317 317 317 315 312 310 310 309 309 309 309 310 311 312 312 311 310 310 310 308 308 309 310 313 314 317 318 319 321 322 321 320 319 319 319 320 323 323 323 317 316 316 316 316 316 316 315 316 317 317 317 317 316 316 316 316 316 316 317 317 318 318 317 318 317 317 316 316 317
301 301 301 302 301 303 303 303 304 305 307 307 306 306 307 313 315 315 314 313 313 313 310 309 308 307 307 307 307 307 309 309 310 310 309 310 309 308 307 308 310 312 315 319 317 318 320 321 318 316 317 317 317 317 320 321 320 316 314 313 313 313 313 313 313 313 313 314 315 316 314 314 314 313 313 313 312 312 312 313 313 313 313 313 313 313 314
302 302 302 301 301 302 302 302 302 303 304 306 306 307 308 307 307 307 308 308 308 308 307 307 306 306 306 305 306 306 307 309 309 308 309 308 306 306 305 305 309 311 312 314 314 315 317 316 315 312 314 315 315 318 315 319 316 313 313 312 312 311 311 311 311 310 311 311 312 311 311 312 311 310 310 309 310 309 309 309 309 310 309 309 310 310 311
302 303 303 302 301 301 302 302 302 301 302 303 305 306 307 308 308 307 307 307 307 307 307 308 309 306 305 306 306 306 306 306 307 307 307 307 306 305 304 305 310 311 315 314 314 312 311 311 313 315 310 311 314 317 317 313 310 310 311 311 311 311 310 310 309 309 309 309 309 309 309 309 308 308 308 308 308 308 308 307 307 307 307 308 308 308 308
303 303 302 303 303 302 302 302 301 301 301 302 303 304 304 306 307 307 307 308 307 307 307 307 309 310 309 307 306 305 304 306 306 306 305 306 307 307 306 307 309 310 314 313 311 308 309 309 310 311 314 313 312 315 314 308 307 307 307 307 308 309 310 310 309 309 307 306 306 307 307 307 307 307 307 306 305 306 306 306 305 305 306 306 306 306 306
305 304 303 303 304 304 304 303 302 301 300 301 303 303 303 304 305 305 306 306 306 307 306 306 306 306 307 307 307 306 307 307 306 306 304 305 306 307 308 308 309 311 313 311 309 308 309 310 309 312 315 315 314 313 309 306 306 305 305 305 305 305 305 305 305 306 306 306 305 304 304 306 304 305 305 305 305 304 304 305 305 304 304 304 304 304 305
306 305 305 304 304 304 304 304 303 302 303 303 303 303 303 303 303 304 304 305 305 305 307 305 306 306 306 306 305 305 306 307 308 308 305 304 304 304 308 311 309 310 311 311 309 308 308 308 311 312 312 312 312 312 306 306 306 305 304 304 304 304 304 304 303 303 304 304 304 304 304 303 302 302 302 303 305 304 303 303 303 303 303 303 303 303 303
305 305 306 308 305 305 305 305 306 306 304 303 303 304 304 303 303 304 305 304 304 304 305 305 305 305 305 306 306 306 306 306 306 307 307 307 305 306 309 310 310 311 311 311 308 307 308 312 311 310 310 310 310 307 306 307 307 305 305 305 305 306 304 303 303 302 302 303 303 302 301 301 300 300 301 301 301 302 303 304 303 301 301 301 301 302 302
304 304 304 305 306 307 307 306 307 306 305 304 302 302 304 305 305 304 305 305 305 305 305 306 306 306 306 306 306 304 303 303 304 306 307 307 309 309 310 311 311 311 310 308 308 308 309 309 311 309 309 310 309 304 304 304 304 304 304 305 305 305 305 304 303 303 302 302 303 304 304 303 300 300 301 301 300 300 300 301 300 300 300 301 301 301 301
304 303 303 304 304 305 306 306 305 304 303 304 305 306 306 306 305 305 305 305 305 305 305 305 305 306 306 306 306 306 306 303 301 302 305 306 306 306 306 306 307 308 309 309 309 311 311 310 310 309 309 309 306 303 303 302 303 303 302 303 303 303 304 304 304 303 303 303 303 302 301 301 300 301 301 300 299 300 300 300 300 300 300 299 298 298 298
303 304 303 303 303 303 303 304 305 305 304 305 305 305 307 306 306 306 306 306 305 305 304 304 304 305 305 308 307 305 306 306 304 302 304 305 304 304 305 307 307 307 306 304 304 305 311 308 308 308 309 308 303 302 302 302 302 303 302 302 302 303 303 302 302 302 302 303 303 303 303 302 301 301 300 301 300 300 301 300 299 299 298 298 298 298 298
304 303 303 303 302 301 301 301 302 303 305 305 303 304 304 305 304 303 305 305 305 306 304 304 304 303 303 304 304 304 305 305 305 304 305 305 304 304 305 304 305 306 305 303 304 304 308 308 308 308 306 303 303 303 303 302 302 302 301 302 302 302 303 303 303 303 302 302 302 303 303 303 303 304 303 302 301 301 300 300 300 301 301 300 299 298 298
303 303 302 303 303 305 304 303 302 304 304 304 303 304 304 302 302 305 304 304 303 303 301 302 302 303 303 303 303 303 303 303 305 305 304 303 304 305 305 304 303 304 304 303 302 301 302 302 303 304 304 303 302 303 303 302 302 302 302 301 302 302 302 302 302 302 302 302 302 302 302 302 301 301 301 303 303 302 302 302 301 300 299 299 299 299 299
301 302 303 302 301 301 301 302 304 302 302 303 304 302 301 301 301 301 302 305 302 301 300 300 299 301 302 302 303 302 302 303 303 303 305 304 302 301 304 304 302 302 300 300 299 300 300 303 305 305 305 301 301 301 304 304 302 301 302 303 303 301 303 302 302 302 302 302 301 301 301 301 301 300 301 301 302 302 302 302 302 301 300 299 299 300 299
Wind_Speed
11 14 14 17 4 13 17 17 15 15 19 21 18 8 8 9 6 7 6 8 8 4 5 6 4 8 10 9 7 9 5 9 7 10 19 17 12 9 10 17 18 19 17 16 18 18 17 17 16 16 17 17 16 16 16 17 17 18 17 17 18 18 17 18 19 18 17 16 16 16 16 16 16 16 16 15 14 14 14 15 14 15 14 14 14 14 14
13 13 12 9 9 1 6 18 16 14 15 21 21 9 6 11 6 5 8 10 9 10 7 5 5 3 11 12 9 8 10 11 11 9 15 12 11 10 11 13 14 15 16 15 14 14 14 17 16 16 16 16 17 17 17 17 17 16 16 17 18 18 18 18 17 16 16 15 15 15 15 16 16 16 15 15 15 15 15 15 15 14 13 13 14 15 14
8 8 12 12 11 8 0 1 16 19 12 16 20 16 9 7 9 7 10 7 6 4 7 3 2 7 11 8 10 9 12 11 9 8 10 12 12 10 10 9 11 11 11 10 9 10 12 13 15 14 14 15 15 16 15 16 17 16 16 16 17 18 17 16 16 16 15 15 15 16 16 15 15 16 16 14 14 15 14 14 15 14 13 14 14 14 15
7 2 5 11 15 10 4 3 3 8 12 13 17 16 10 5 7 11 4 5 3 4 10 9 12 13 12 10 13 13 9 7 8 6 9 11 11 13 11 12 12 10 10 11 12 14 14 14 15 13 12 13 14 16 15 16 16 16 15 15 17 17 16 15 16 16 15 15 16 16 15 16 15 15 14 14 14 14 13 14 13 12 14 16 15 14 14
6 7 2 13 10 10 8 7 6 4 1 6 14 15 13 7 10 9 7 8 7 6 9 9 10 14 13 10 10 10 12 10 7 11 4 6 13 10 11 11 11 13 14 12 14 14 12 12 12 13 12 12 14 14 14 14 13 15 16 15 14 16 16 15 16 16 15 16 16 16 16 16 14 14 14 14 13 13 15 14 12 14 15 15 15 13 14
8 13 9 7 4 2 4 1 3 4 1 6 10 16 15 11 4 4 7 5 4 5 10 14 8 12 9 7 6 9 10 8 10 7 8 9 5 6 9 9 8 7 6 8 11 12 12 12 12 9 8 10 9 10 12 12 13 14 15 14 13 15 15 15 16 16 16 16 16 16 14 14 14 14 14 15 14 13 12 12 13 14 14 16 15 14 14
6 11 11 3 3 4 2 2 3 3 3 2 5 4 22 11 4 6 10 6 5 8 6 8 11 9 8 8 9 9 9 8 6 5 6 8 8 7 4 5 5 2 5 6 5 3 4 5 5 5 6 6 7 8 8 9 11 12 13 14 11 13 15 14 15 15 16 16 16 15 15 14 14 14 14 14 14 12 12 13 14 14 15 15 15 15 14
7 3 1 3 2 5 5 0 5 7 5 1 3 15 17 15 12 4 8 13 14 13 11 10 9 13 13 13 10 9 9 9 11 14 12 11 13 13 10 6 3 1 5 8 6 7 5 7 7 7 7 7 7 7 7 8 7 9 10 12 11 11 14 15 15 15 16 16 16 15 14 14 14 15 14 14 15 13 12 12 12 12 11 12 14 15 15
4 6 3 4 4 4 4 3 5 7 4 2 5 7 11 17 21 23 4 11 17 13 12 11 9 11 15 13 9 13 16 15 13 13 12 13 13 12 10 10 10 9 9 4 5 4 3 2 4 7 8 8 9 7 7 7 6 7 7 10 11 11 13 14 14 15 15 16 15 15 15 15 15 15 14 14 13 11 12 12 12 13 13 14 13 14 15
3 4 4 2 1 2 7 17 18 19 8 5 2 8 9 21 25 18 11 12 14 17 13 9 8 13 15 12 10 11 11 12 12 11 12 13 12 10 10 8 9 8 6 5 4 5 5 6 5 3 1 5 5 7 7 8 8 7 8 9 9 9 11 13 13 14 14 15 15 15 15 15 15 13 13 12 12 11 13 13 13 14 13 12 12 12 14
6 4 4 1 2 2 9 20 18 20 11 3 3 11 12 15 20 23 22 12 14 12 10 11 7 11 11 5 5 7 9 9 11 12 12 12 11 9 8 7 7 7 6 4 4 4 7 7 4 2 2 1 3 5 7 9 9 9 9 9 9 9 9 11 12 12 13 14 15 15 15 15 14 14 13 12 11 10 12 12 12 10 9 10 11 11 12
4 4 2 3 5 3 18 17 18 15 20 2 8 10 7 13 17 19 19 19 17 18 18 20 17 11 10 7 7 8 10 10 12 13 11 12 11 10 10 10 7 5 8 10 10 7 7 5 5 5 3 2 2 4 6 6 9 11 12 11 9 7 8 10 11 12 12 14 14 14 14 13 12 12 10 10 11 11 10 10 10 10 9 9 11 11 10
5 5 2 3 1 6 16 21 18 19 14 6 12 6 3 12 12 15 15 17 16 16 15 13 13 7 7 6 6 9 9 12 14 14 14 12 11 9 11 11 11 10 10 9 8 9 8 9 10 9 8 5 2 1 4 5 7 11 12 9 8 8 8 9 10 12 11 13 14 13 12 12 12 11 10 11 10 10 11 10 9 9 11 9 9 9 9
4 3 1 4 1 7 19 16 17 20 9 9 7 1 6 7 12 13 15 17 16 14 14 11 11 10 10 11 11 13 13 12 11 12 12 11 10 10 9 10 11 9 9 8 7 7 6 8 8 7 7 7 5 4 0 4 7 7 3 6 9 9 10 10 11 11 11 11 12 11 11 11 11 10 9 10 10 10 9 9 10 11 10 9 9 8 7
3 2 3 3 3 8 17 19 15 19 9 1 1 4 4 12 12 13 13 14 15 14 12 13 12 11 12 13 13 13 13 11 11 10 11 10 8 9 10 11 11 10 8 7 6 6 7 8 7 5 6 6 6 5 4 3 3 3 6 8 9 10 10 10 11 11 10 12 11 9 9 11 11 11 9 10 9 8 9 9 9 10 10 9 9 8 6
2 3 3 1 1 6 13 14 8 6 8 2 5 7 9 10 12 12 10 12 13 14 12 13 10 11 11 13 14 13 14 13 12 10 9 9 10 11 11 10 10 9 8 9 4 6 8 5 4 5 4 5 5 5 5 6 3 4 1 6 8 10 10 10 11 10 10 11 11 10 10 10 10 10 9 9 8 8 9 9 9 9 9 8 8 9 9
2 2 1 3 3 5 9 11 11 11 7 7 9 8 9 9 10 10 10 12 14 14 13 13 13 12 13 11 12 12 12 13 14 14 12 9 10 10 9 10 9 9 9 9 4 7 8 9 5 3 5 5 4 4 6 5 4 4 2 4 5 7 8 8 10 9 9 10 10 9 9 10 10 9 8 8 8 7 8 8 8 9 8 7 8 9 8
3 4 6 3 3 10 8 9 8 10 10 10 9 10 7 8 9 9 10 11 12 13 13 13 13 14 13 13 13 12 11 12 13 11 13 11 8 8 7 6 7 7 10 8 5 7 7 8 10 6 8 6 7 7 5 5 5 5 2 3 5 6 6 7 8 9 9 9 9 9 9 9 9 8 9 9 9 7 8 8 9 9 7 7 8 8 7
6 2 4 7 10 9 10 6 0 3 8 9 8 8 8 8 9 10 10 11 11 12 12 13 11 13 14 14 13 12 11 12 12 12 12 11 8 5 6 5 5 7 7 8 7 7 8 8 8 8 9 8 8 9 8 8 4 4 3 3 4 5 6 7 7 8 9 8 7 7 7 7 7 7 8 8 8 8 8 9 8 7 7 7 7 7 7
2 2 8 6 3 2 6 5 6 5 7 7 7 7 7 8 8 9 9 9 10 11 12 13 13 12 13 13 12 11 11 9 9 9 10 9 10 6 5 4 6 5 5 5 6 7 7 7 7 8 8 8 9 9 9 9 7 4 4 3 4 5 6 6 7 7 8 9 9 6 4 4 4 3 6 8 8 8 9 8 7 7 7 7 7 7 7
6 7 4 5 5 5 7 6 4 4 5 6 8 7 6 5 8 9 8 9 8 9 10 10 11 10 10 9 9 10 8 8 8 9 10 9 9 8 6 4 3 4 4 4 4 5 5 4 5 5 7 8 9 9 8 8 8 5 3 3 3 4 5 6 6 6 7 8 7 9 9 9 9 7 5 5 2 5 5 2 4 7 7 7 6 3 4
5 3 3 8 7 5 9 9 9 8 8 7 5 4 5 6 5 6 7 7 7 7 7 8 8 8 8 7 6 7 7 7 8 9 9 9 10 9 5 3 3 4 3 3 3 3 3 3 3 4 5 6 7 7 8 8 8 5 1 3 3 4 2 2 4 5 6 7 9 9 9 9 9 9 12 14 11 5 3 8 5 4 7 4 7 9 10
8 9 12 10 7 6 2 9 11 8 7 3 4 4 4 4 2 2 3 5 4 4 5 5 5 5 6 8 6 6 6 7 8 8 9 8 8 7 4 3 3 3 2 1 0 1 1 1 2 3 4 4 6 6 7 7 6 5 5 6 5 5 5 5 0 5 5 7 9 8 9 10 10 10 9 12 16 16 11 8 10 18 19 17 13 12 15
11 10 11 13 11 11 9 7 10 11 5 5 4 1 2 1 2 2 2 3 4 4 3 4 4 5 5 6 5 5 5 6 8 9 9 9 6 7 8 2 1 1 1 1 1 1 1 1 0 0 0 1 3 4 5 6 6 5 5 5 5 4 4 3 4 5 4 8 10 9 7 8 9 10 11 11 10 15 16 15 16 18 19 19 18 18 19
11 13 13 12 11 14 13 9 5 7 9 6 4 3 2 3 3 2 3 3 2 2 4 4 5 5 5 6 5 4 4 5 7 9 11 8 8 7 6 5 3 1 3 3 3 4 6 5 4 3 2 3 5 5 4 5 6 6 5 4 4 4 3 4 4 6 6 8 10 10 9 9 8 9 11 11 12 9 10 14 18 18 16 16 17 16 15
16 14 14 15 14 14 11 12 10 6 7 5 6 4 2 4 4 3 1 1 1 1 1 3 4 6 7 8 6 3 3 4 6 9 9 10 7 6 4 1 2 3 3 3 3 3 3 4 5 7 5 4 4 4 5 5 5 3 4 4 4 3 3 3 4 6 6 8 10 9 9 9 9 8 8 10 11 13 12 10 11 12 13 13 14 16 14
17 15 14 17 18 15 11 9 9 6 7 7 10 10 6 5 6 5 4 4 3 2 3 3 4 5 7 7 5 4 4 5 6 7 7 9 11 5 1 1 2 3 2 1 2 2 3 3 4 4 4 4 4 5 6 7 5 2 2 2 3 6 9 6 4 5 6 6 9 10 9 9 9 9 9 9 9 9 10 11 10 9 7 5 5 6 9
17 16 12 15 17 15 10 8 9 9 8 7 8 9 10 7 6 6 5 5 4 2 1 2 3 4 5 7 5 4 3 5 7 8 9 8 9 3 2 0 2 3 3 2 1 1 2 2 2 2 3 5 5 4 4 6 7 7 6 1 5 6 6 6 5 5 6 6 6 9 10 9 8 9 9 9 9 9 9 9 10 10 7 6 5 4 11
16 15 15 16 19 17 14 13 12 12 11 10 10 9 10 12 11 8 7 7 7 5 3 2 3 4 5 6 3 2 3 5 7 8 8 6 6 5 3 1 1 2 3 3 3 2 3 3 3 3 3 3 3 4 5 6 5 5 6 6 5 5 5 5 5 5 7 8 6 6 10 10 10 9 8 9 9 9 8 9 9 7 7 5 5 5 6
14 14 14 16 15 13 13 15 14 13 12 10 10 9 8 10 12 9 7 9 9 12 10 6 4 5 7 4 0 0 1 3 3 6 7 8 4 5 4 4 0 0 0 1 2 4 4 3 1 1 1 2 2 2 3 2 3 4 4 5 5 5 4 3 4 6 7 8 8 10 10 9 9 9 10 9 9 8 9 8 8 7 7 6 6 6 6
10 10 13 14 14 14 15 15 12 12 11 10 10 10 10 9 10 10 8 5 6 8 9 10 11 10 9 3 2 1 1 0 0 1 3 4 3 3 4 2 1 1 3 4 5 7 7 6 6 5 3 0 2 1 2 3 3 3 4 4 5 6 7 6 5 5 6 7 8 8 8 10 9 9 9 9 9 9 9 8 8 7 6 6 6 6 5
9 11 12 11 11 13 13 11 12 12 12 11 11 12 12 10 10 10 10 8 7 7 9 9 10 12 10 3 4 4 4 4 3 3 4 4 1 2 2 6 3 6 6 6 6 6 6 7 8 6 5 7 4 1 1 2 3 4 4 4 3 3 5 8 7 8 7 7 7 7 8 9 9 9 9 8 8 9 9 9 8 6 6 6 6 5 2
10 6 8 10 11 12 11 10 11 12 12 12 12 11 10 9 9 9 7 5 6 7 7 9 9 9 0 3 3 4 4 4 4 7 7 10 10 2 6 2 2 6 8 5 6 8 9 9 6 5 6 6 6 7 4 2 3 5 4 2 5 7 7 7 8 8 9 9 8 8 8 7 7 7 9 10 9 9 9 9 8 7 6 6 5 4 5
17 13 9 6 10 11 13 14 12 10 10 11 11 11 10 7 5 4 4 4 7 8 8 8 10 3 3 3 4 6 7 7 9 8 8 11 14 13 4 7 4 5 6 7 10 9 8 7 7 9 9 10 9 8 8 4 3 5 4 6 6 6 6 6 8 8 8 8 7 8 8 9 9 8 7 8 8 8 8 8 7 7 7 6 5 3 5
21 19 17 15 11 7 11 10 9 9 9 10 9 9 7 5 5 6 6 6 8 6 3 4 3 6 4 4 4 6 9 10 6 7 9 10 13 12 13 5 6 3 10 13 11 9 9 9 10 10 12 13 12 10 11 12 10 8 7 9 11 10 11 11 11 10 8 7 8 8 8 7 7 7 8 8 8 8 8 7 7 7 6 6 4 2 2
24 20 18 16 13 13 8 6 8 9 8 9 9 7 6 6 7 7 9 9 4 2 1 3 1 5 7 6 2 7 11 10 9 8 10 8 8 11 8 8 4 12 14 16 14 10 9 10 17 18 13 12 13 14 13 11 11 12 12 11 10 11 11 11 11 12 12 11 11 10 8 9 8 6 6 6 6 6 7 7 7 6 6 6 5 3 3
23 21 18 16 16 17 14 11 7 3 3 3 3 5 7 8 8 8 8 3 7 6 9 9 9 13 14 14 12 8 8 9 9 9 8 6 4 11 11 10 13 14 14 15 11 9 9 11 16 21 14 12 14 14 15 17 11 11 11 11 11 11 11 11 11 11 12 11 11 11 12 11 11 11 10 9 8 8 8 7 6 5 4 2 2 2 3
21 21 19 17 16 17 17 15 14 12 8 4 3 3 3 4 6 6 7 8 6 10 12 14 12 12 16 17 13 10 9 12 12 11 10 9 8 13 14 12 11 11 14 10 8 10 12 14 16 13 12 12 13 13 16 20 19 13 11 11 11 11 12 11 12 11 11 11 11 11 11 11 11 10 11 11 11 11 11 10 10 10 10 10 9 9 9
22 21 22 20 19 20 19 17 17 17 16 12 8 10 9 2 5 11 9 10 8 9 15 15 15 16 16 18 16 11 10 9 10 11 11 10 11 16 14 12 11 9 6 7 11 11 12 13 11 12 12 12 13 14 17 21 20 13 11 11 12 11 11 11 11 11 11 11 11 11 11 11 11 11 10 10 10 10 11 13 12 10 11 10 10 10 10
17 19 21 21 21 20 19 18 19 20 18 17 18 19 16 9 9 10 11 12 11 8 9 14 15 16 17 17 17 13 11 11 10 11 11 8 10 12 13 14 13 11 12 14 12 12 17 19 14 12 12 13 13 12 14 19 18 13 12 12 11 11 11 11 11 11 11 11 12 13 11 11 11 10 10 10 10 11 10 10 11 11 10 10 10 10 10
15 16 16 18 19 20 20 19 19 20 20 20 21 22 16 14 18 14 17 15 13 12 12 14 17 16 17 16 16 15 13 12 12 12 10 10 12 11 14 13 11 11 13 13 13 15 19 17 14 13 11 12 12 13 12 17 14 12 12 12 12 12 11 11 11 11 11 11 11 11 10 10 11 12 11 10 10 10 10 11 11 11 10 10 10 9 9
14 14 15 17 18 18 19 18 20 22 20 20 22 23 18 18 18 13 14 16 16 16 18 19 21 18 16 17 14 14 15 13 12 12 13 13 11 9 13 11 10 11 18 17 16 16 14 15 14 13 11 11 13 21 19 13 12 11 11 11 11 12 12 12 11 11 10 10 10 10 10 10 11 11 10 11 11 10 10 11 11 11 10 10 10 9 9
12 13 14 13 14 16 17 18 19 19 20 20 19 19 17 17 16 15 16 17 16 17 18 16 17 19 16 14 13 14 13 11 12 10 12 13 13 11 11 9 10 13 22 15 14 12 13 12 12 13 18 16 14 22 21 14 12 12 12 12 11 11 10 10 11 11 11 10 10 10 10 10 10 10 10 11 10 10 10 10 10 10 10 10 9 9 9
10 10 11 12 12 12 13 13 14 17 18 18 17 17 17 16 15 15 17 17 18 17 17 16 17 17 15 12 12 11 10 9 9 8 9 9 11 12 11 10 9 15 22 13 12 12 12 11 12 19 25 25 24 21 13 12 13 12 12 11 11 11 11 11 11 10 11 10 10 9 9 9 10 9 10 10 10 10 10 9 9 9 9 9 9 9 9
9 9 10 11 12 11 10 10 12 14 12 12 16 17 16 17 17 17 17 18 19 18 17 16 15 13 12 11 10 10 9 9 8 7 9 9 11 11 9 11 13 11 15 17 11 11 11 12 16 22 20 21 22 21 13 12 11 12 11 11 11 11 11 11 11 11 10 10 10 10 10 10 9 10 9 10 10 10 10 10 10 9 9 9 9 9 9
8 9 9 9 10 10 9 9 8 9 11 13 14 14 15 14 15 14 15 16 16 15 15 15 14 13 12 11 10 10 10 10 10 9 9 8 9 8 10 13 11 13 20 19 10 11 13 20 20 19 19 20 20 14 12 11 10 10 10 10 10 10 10 10 10 10 10 10 9 9 10 10 10 10 10 9 9 9 9 11 9 9 9 10 9 9 8
6 7 8 8 8 8 8 8 9 11 9 10 12 11 10 10 10 10 11 13 13 13 11 11 11 11 10 10 9 9 9 9 10 9 8 8 9 10 13 18 18 21 17 12 11 11 11 13 15 18 18 20 19 11 11 10 10 10 10 9 9 8 9 9 9 9 9 9 10 10 11 11 9 9 10 10 10 10 9 10 10 10 10 10 10 10 10
6 7 7 7 8 8 7 7 8 9 10 10 9 8 7 7 8 9 9 9 10 10 10 10 10 11 11 11 10 8 7 7 9 10 8 8 8 8 8 9 12 17 17 15 16 14 18 17 17 17 17 17 12 10 11 10 10 10 9 9 9 9 8 7 7 7 8 8 8 8 8 8 8 8 9 9 9 9 8 9 9 9 9 9 9 9 10
7 6 7 7 7 7 7 8 7 7 8 8 8 7 7 7 8 7 7 8 9 9 9 9 9 10 10 10 10 8 8 8 8 8 7 8 8 8 9 12 17 16 11 9 10 9 14 16 16 16 16 14 10 10 10 10 10 10 9 9 9 8 8 9 8 7 7 6 6 7 7 8 7 7 8 8 8 8 8 9 9 9 9 9 9 9 10
6 6 6 5 5 6 6 6 6 5 5 6 7 7 6 6 7 7 7 8 8 8 7 8 8 8 8 8 8 8 8 8 8 8 7 7 9 9 9 10 10 15 14 9 9 9 12 15 14 15 12 9 9 9 8 9 9 9 9 10 9 8 9 10 10 11 9 9 9 8 7 6 5 6 7 7 7 6 7 7 8 9 12 9 8 8 9
6 5 5 6 6 4 4 5 5 4 3 5 5 6 6 7 6 5 5 7 6 8 8 8 7 7 7 7 6 7 6 6 7 9 7 7 7 10 12 9 10 9 9 9 8 8 7 8 8 9 10 9 9 9 8 8 8 9 9 9 10 9 8 9 8 8 8 8 8 8 8 8 8 7 6 5 5 5 5 5 5 5 5 6 6 6 7
8 6 6 6 6 7 7 6 6 7 8 5 3 5 5 5 5 6 5 8 6 6 6 6 7 6 6 5 6 5 6 7 5 6 6 7 7 6 9 11 8 9 8 7 8 7 7 8 9 13 12 9 8 8 10 11 9 9 9 8 8 9 9 8 8 8 8 8 7 8 8 8 7 8 7 7 6 6 6 4 3 4 5 5 5 5 5
Wind_Direction
293 280 278 289 278 178 176 189 202 203 192 206 221 182 172 154 147 193 220 156 166 219 203 219 220 173 167 127 111 107 117 97 101 149 161 162 152 145 138 163 164 168 167 170 172 174 176 176 178 181 183 185 186 187 188 188 190 190 187 189 192 195 196 199 201 200 199 200 201 200 199 198 200 201 200 199 197 195 194 198 200 202 201 197 197 200 203
291 296 284 300 295 269 175 187 202 223 199 194 214 209 182 162 167 201 182 162 172 186 206 172 215 99 109 110 108 84 80 82 82 94 117 114 115 126 144 154 163 166 170 170 173 173 175 178 182 181 183 183 185 187 189 189 191 191 186 190 191 194 197 198 197 197 197 198 198 198 198 199 201 201 200 198 198 198 197 198 199 200 201 198 200 200 201
297 300 323 311 294 299 194 280 202 211 216 193 200 218 215 172 175 189 165 157 196 213 137 135 79 71 92 86 95 100 97 93 91 90 94 103 102 112 129 130 148 156 155 153 155 167 178 182 185 183 182 183 185 188 189 190 192 192 189 190 192 195 197 193 192 193 194 197 196 198 198 199 199 200 201 198 198 199 198 196 197 197 198 202 204 200 201
322 344 294 295 291 288 329 278 247 201 217 202 186 210 209 189 178 179 155 120 148 187 92 90 80 77 77 81 77 63 47 66 90 90 120 117 124 128 132 138 142 150 150 155 166 176 185 187 186 186 180 180 184 190 190 192 192 192 194 193 193 194 194 189 189 190 193 194 197 198 197 199 198 200 200 199 199 198 198 197 197 193 198 204 205 200 201
314 345 290 284 309 340 320 256 241 208 68 310 187 199 211 219 163 172 147 212 197 183 114 87 81 75 73 61 67 61 62 61 58 63 50 132 128 126 136 142 146 153 163 169 172 176 182 186 187 191 181 177 185 190 190 192 187 193 199 196 193 194 193 188 187 188 189 192 196 197 199 199 198 198 199 201 201 198 200 198 191 195 201 202 205 203 201
299 315 308 279 1 327 240 218 53 39 104 315 209 181 211 209 166 171 162 198 160 96 114 119 99 88 90 84 74 94 92 66 48 41 62 59 63 107 111 115 125 137 145 162 170 174 179 184 184 178 177 181 184 184 186 187 188 193 198 199 191 193 193 191 188 186 188 191 193 196 196 198 198 197 198 202 202 200 199 195 196 200 201 203 205 206 204
300 316 319 264 233 239 269 346 32 339 347 318 350 164 185 215 219 176 151 162 104 83 87 112 117 99 79 72 59 52 67 87 78 62 73 77 65 56 90 123 113 121 162 158 138 122 148 159 154 154 173 172 173 181 173 180 192 191 194 199 193 189 193 192 187 187 188 188 191 192 193 194 195 198 199 203 203 202 198 198 199 201 201 204 207 207 208
286 302 290 208 235 284 280 38 25 13 334 279 54 68 50 17 324 257 166 140 112 103 95 80 84 99 90 69 58 52 54 66 62 49 34 58 63 60 51 51 19 138 167 154 158 173 178 162 177 177 188 183 167 184 185 176 184 192 191 196 192 185 191 192 190 187 186 188 189 189 190 191 194 198 198 200 202 201 202 204 206 206 208 207 207 209 211
342 322 279 246 338 303 312 44 31 9 329 348 126 88 39 358 13 348 130 126 119 112 96 94 91 88 83 78 44 28 39 43 50 54 57 54 57 58 48 53 60 46 23 50 124 116 98 181 192 196 191 181 184 180 184 191 178 185 189 196 195 185 190 190 189 186 187 187 188 188 188 191 196 197 197 200 203 199 205 207 205 206 208 208 209 209 210
360 327 334 300 267 280 360 340 339 334 324 40 63 98 33 9 352 341 317 130 118 111 106 87 90 81 71 53 31 25 30 40 48 51 52 51 46 44 45 39 43 40 33 19 25 73 90 95 100 86 140 189 186 187 191 192 186 193 192 205 197 183 187 188 187 186 186 186 186 188 189 193 194 196 197 199 200 196 204 207 210 210 209 213 214 212 211
317 316 308 294 252 133 9 344 335 333 309 47 54 69 43 355 355 354 356 42 69 74 93 111 88 74 78 72 31 31 29 30 43 54 49 45 42 31 38 43 35 21 14 15 350 27 49 38 25 103 112 122 191 206 205 194 193 197 207 207 194 190 186 182 183 182 185 186 187 188 191 192 191 193 196 197 196 194 204 209 215 215 211 214 217 218 218
256 302 300 309 26 20 341 330 338 318 300 9 58 64 20 337 343 358 7 16 27 54 63 68 56 68 85 60 37 35 35 36 44 50 47 40 35 25 13 8 8 20 29 28 20 26 40 16 4 12 56 120 179 207 219 218 197 202 210 208 194 182 173 179 181 182 183 185 187 189 190 189 191 192 189 190 193 195 201 205 212 215 214 215 217 219 218
293 280 280 298 313 345 348 344 334 334 312 37 63 90 335 306 353 2 6 20 25 42 52 59 81 58 72 68 49 48 44 44 41 39 37 31 24 17 12 19 24 33 23 19 12 7 22 24 17 3 358 19 37 224 223 203 222 216 212 193 172 176 173 173 180 182 181 183 185 188 186 186 186 187 187 191 189 194 199 202 208 212 219 220 220 221 216
280 267 98 226 44 24 345 337 359 0 23 58 82 143 249 298 13 10 13 18 21 31 47 53 60 55 44 43 41 39 38 46 51 41 33 23 16 3 5 32 31 24 17 2 3 15 36 20 8 360 3 5 353 357 340 240 240 246 239 182 175 170 172 176 178 180 181 180 181 182 181 178 182 186 186 185 188 192 194 199 205 211 216 221 225 224 216
296 340 319 28 357 332 344 334 25 18 62 62 212 263 21 29 21 16 13 16 17 16 41 46 51 46 39 35 33 32 30 34 45 43 31 21 11 3 20 30 20 18 7 352 13 5 11 9 356 348 353 343 335 337 328 276 281 268 196 183 180 175 173 173 177 177 176 173 174 177 177 177 178 182 180 184 187 187 191 197 203 208 213 215 222 228 225
286 21 32 149 351 304 326 9 35 17 93 195 45 25 33 23 21 15 13 9 13 14 28 34 34 45 44 37 29 25 20 20 27 35 34 21 14 32 38 22 18 2 7 338 1 35 19 348 340 337 337 319 311 320 313 310 327 356 195 189 177 173 175 175 173 173 171 170 172 173 172 172 177 177 181 183 184 188 188 195 200 208 211 210 217 223 228
10 357 311 279 302 315 353 13 12 358 27 63 53 52 42 22 20 12 16 4 3 12 18 22 21 33 37 40 33 29 17 17 18 18 15 22 27 25 28 18 3 2 360 339 48 45 20 358 328 334 11 19 4 6 327 324 350 10 357 158 167 174 172 170 168 167 163 165 168 168 166 169 173 177 182 179 188 186 184 192 197 203 203 198 208 215 220
335 284 233 234 358 354 352 36 356 350 3 25 47 45 39 26 21 20 14 357 3 4 19 18 16 21 21 25 23 19 24 22 12 14 12 2 22 22 20 7 360 5 1 350 39 45 26 16 9 13 14 18 15 330 313 338 1 358 26 136 155 164 159 157 161 157 158 159 163 164 161 167 169 175 178 184 188 183 186 195 197 199 195 192 200 201 205
29 325 63 26 2 336 346 329 247 334 18 14 36 46 33 16 14 24 11 1 360 5 16 19 16 19 18 17 13 8 17 13 10 5 6 354 354 3 350 347 10 15 17 11 21 32 27 18 14 13 13 9 2 347 344 336 350 14 32 105 130 140 147 150 149 153 156 159 158 160 156 156 162 173 182 186 186 183 189 196 198 195 186 182 187 186 195
302 298 323 335 304 338 285 317 343 8 36 44 51 33 43 16 2 18 7 358 4 0 14 8 9 14 18 13 10 4 3 2 0 358 350 344 332 332 338 5 357 21 31 32 26 29 25 16 14 10 8 3 355 350 349 350 343 12 12 57 108 131 139 145 147 148 154 152 149 143 112 109 132 167 185 182 181 185 188 192 186 187 180 179 175 182 190
309 308 284 280 275 227 248 257 269 59 55 14 27 22 48 37 11 359 357 8 359 6 10 7 1 7 13 10 11 355 343 349 353 349 332 329 318 318 343 337 350 46 32 32 21 29 18 5 20 17 4 354 347 346 343 339 337 347 358 25 71 97 119 128 143 140 135 147 135 110 98 84 71 56 24 338 38 71 13 337 192 174 175 173 170 122 100
296 284 324 17 2 350 335 335 359 8 38 16 20 11 8 42 34 349 352 356 3 357 5 6 351 360 349 356 359 339 344 339 337 330 324 320 317 316 305 324 49 38 41 32 25 22 14 16 26 21 11 354 342 343 349 345 345 331 331 29 44 39 34 97 141 137 131 134 113 120 115 112 101 75 55 53 30 55 57 358 358 102 128 136 136 120 97
297 319 318 330 320 291 273 338 336 345 330 11 40 6 10 355 56 56 344 333 338 352 351 345 352 335 334 329 342 348 341 334 318 315 315 314 313 313 326 42 11 69 23 19 349 44 26 42 44 31 18 350 338 347 357 351 352 15 52 71 61 50 53 36 51 157 154 128 122 121 121 115 108 102 86 49 43 41 47 38 68 83 87 90 93 110 115
316 333 343 337 327 314 321 332 326 319 336 345 324 348 320 324 341 345 351 312 320 311 322 320 318 316 316 313 330 330 319 312 315 311 308 300 306 310 313 278 69 10 53 335 330 340 315 305 324 260 308 338 340 343 2 351 359 13 33 68 77 70 64 47 61 94 97 123 128 119 111 112 114 118 107 97 54 36 36 54 64 77 88 92 93 96 107
299 311 307 307 308 307 308 304 286 295 296 296 301 296 299 293 278 266 272 280 263 331 327 317 310 305 298 293 295 298 302 303 297 306 310 299 278 280 287 294 155 126 53 17 355 24 25 10 1 348 5 359 18 3 1 360 354 18 23 39 65 57 30 51 63 87 93 113 129 124 124 119 118 120 121 117 108 92 45 47 64 72 76 87 98 105 106
298 298 300 300 299 292 298 299 283 270 276 287 297 292 267 278 271 267 236 193 236 242 285 293 300 297 296 289 281 285 300 289 299 304 303 300 297 281 279 50 60 73 82 47 35 29 32 49 47 30 9 3 17 9 353 343 349 18 35 41 56 53 53 46 64 86 94 126 131 130 131 132 131 126 117 119 124 122 115 105 73 56 54 67 85 92 91
287 285 294 297 286 278 269 265 285 298 296 304 296 297 304 301 305 291 262 242 220 211 223 228 248 270 288 292 298 311 308 307 306 297 290 294 292 287 162 148 131 128 116 91 58 60 72 56 47 43 17 356 339 343 352 345 325 334 355 26 26 57 54 47 45 65 78 97 129 130 128 126 125 121 119 123 122 117 120 118 113 110 108 66 26 81 118
270 270 260 257 263 266 274 284 294 303 309 306 296 288 296 297 281 281 290 299 300 291 249 212 234 246 269 277 281 301 306 311 312 306 302 300 300 275 288 227 155 116 107 119 105 59 74 74 71 47 44 23 16 14 28 37 33 25 356 10 65 51 47 42 40 45 64 62 93 126 131 129 126 121 125 125 118 117 112 110 116 120 112 104 116 130 117
251 249 247 245 252 261 270 277 273 271 276 287 295 303 306 306 304 305 310 311 305 304 296 323 312 276 256 253 215 248 291 301 296 298 302 309 333 327 303 301 282 155 154 184 178 144 90 56 37 45 40 26 3 17 32 23 23 24 39 37 51 62 52 41 47 57 63 68 57 78 112 122 123 125 124 117 115 114 110 109 110 110 116 130 117 85 69
238 232 234 242 245 248 253 252 256 263 265 267 276 278 285 288 291 295 303 309 316 313 313 315 311 305 300 272 203 172 289 292 297 302 301 295 296 309 295 282 248 50 344 178 146 105 101 111 102 86 38 24 26 56 61 39 48 49 49 56 62 47 30 28 56 70 79 84 86 80 93 110 120 121 120 119 119 114 112 111 108 104 100 88 84 90 83
227 212 222 231 238 243 241 246 247 249 252 249 250 261 263 265 275 287 293 306 312 310 316 319 317 310 305 319 31 47 68 76 272 307 316 322 310 275 275 317 281 36 16 6 34 49 49 47 37 20 338 212 111 66 84 91 56 58 65 60 53 32 25 26 55 68 73 87 87 86 92 101 109 114 116 117 112 107 106 106 99 96 97 94 89 86 75
259 228 223 225 230 235 238 238 243 241 237 239 242 239 241 247 257 267 272 271 271 279 283 292 298 297 301 18 36 29 23 17 6 20 19 350 356 67 66 88 108 107 81 59 49 49 61 59 48 31 19 18 346 309 80 67 77 79 71 52 47 45 28 25 31 40 64 88 94 89 93 100 106 111 112 106 105 106 108 104 101 100 95 95 91 92 87
357 223 225 226 232 234 241 239 233 235 234 235 234 237 238 236 240 248 258 271 286 284 280 273 273 274 349 53 66 48 28 16 28 27 34 43 356 328 87 9 78 94 91 85 75 68 60 52 35 19 18 13 17 10 351 50 75 93 88 71 66 73 75 72 74 65 59 63 73 82 82 80 80 86 92 100 103 105 102 101 104 102 102 105 118 127 102
6 4 345 281 222 218 222 227 229 234 228 227 232 234 232 227 224 231 243 269 273 273 266 264 257 214 159 127 97 78 61 46 35 26 41 50 39 348 358 100 66 72 94 84 68 56 50 49 49 45 38 36 25 23 9 11 63 57 60 55 60 59 57 54 58 63 63 60 62 68 75 77 77 82 89 97 105 105 108 115 119 122 120 115 110 113 94
7 4 0 358 350 275 239 235 229 227 230 232 232 233 231 221 217 224 236 244 250 257 281 288 230 166 168 131 103 90 82 76 48 42 32 46 60 13 332 28 80 46 60 55 54 47 44 49 54 57 54 45 40 39 43 37 32 30 38 54 54 54 51 48 45 38 41 50 59 64 63 69 77 77 82 89 100 111 122 131 134 132 130 134 143 121 125
8 6 3 1 4 14 1 280 254 243 231 227 236 240 230 214 214 223 229 231 214 136 29 312 255 100 52 19 60 109 101 93 81 53 55 25 62 77 2 324 48 61 53 49 32 31 38 56 58 60 64 55 49 42 40 43 49 53 52 52 53 55 54 52 49 49 42 39 39 35 44 51 55 62 78 86 88 104 120 131 132 138 140 146 150 147 136
9 7 4 7 19 24 22 17 6 327 259 262 245 233 229 221 220 220 224 171 134 137 119 103 78 79 73 55 29 23 65 80 75 72 54 43 358 72 59 10 21 46 47 46 10 7 37 52 59 61 61 58 57 50 41 44 53 49 47 47 49 50 51 51 47 47 43 39 40 42 41 44 44 38 31 35 38 33 37 52 65 63 58 60 74 93 104
13 10 9 11 19 26 27 27 30 30 31 46 39 13 341 298 239 207 129 125 135 118 108 98 95 92 86 74 50 21 46 67 72 64 62 45 36 60 57 44 21 26 41 30 1 26 33 35 43 57 61 62 59 57 51 50 55 55 51 49 48 50 51 51 50 46 43 40 41 44 43 43 42 41 40 42 42 42 42 43 48 53 54 50 49 45 39
20 15 14 13 22 25 25 24 30 39 39 39 40 32 360 324 91 85 109 119 109 112 104 103 99 87 83 84 74 40 27 41 62 67 62 51 50 61 59 49 39 38 42 40 42 42 39 40 43 54 59 59 58 59 57 56 57 57 54 52 52 51 51 50 52 50 47 45 46 44 44 44 42 41 39 39 41 45 45 45 47 46 47 42 41 39 35
25 23 17 16 20 19 24 23 29 35 34 38 48 43 14 48 90 106 94 74 69 60 90 102 91 91 85 82 81 70 43 30 42 55 54 41 48 59 59 46 34 35 39 46 47 46 48 45 43 52 52 54 56 59 61 64 64 60 58 57 55 54 54 51 50 49 47 49 49 47 47 46 45 46 45 43 42 42 41 41 45 46 47 44 42 37 35
26 29 25 24 26 23 22 22 26 33 32 35 45 48 26 49 60 56 80 81 77 75 66 73 86 82 81 82 82 80 69 51 38 43 46 52 52 50 59 49 19 24 36 48 52 53 52 50 45 46 47 53 55 59 61 62 63 64 64 63 61 60 57 55 52 50 48 49 49 50 48 47 50 51 49 48 47 45 44 45 45 43 42 42 40 37 37
32 27 30 32 31 29 26 24 28 33 31 34 41 46 25 43 60 47 64 74 74 70 70 67 69 76 76 74 73 73 70 61 50 44 47 48 45 46 62 53 33 39 43 44 47 52 51 51 48 50 49 55 58 61 60 57 55 57 57 60 63 64 63 61 59 56 54 53 53 54 53 53 55 54 51 50 47 45 46 48 48 45 41 40 39 37 34
39 34 30 32 35 33 31 30 31 33 33 34 37 42 30 33 46 48 53 57 57 62 63 61 60 62 63 64 69 69 65 61 58 45 50 52 49 43 56 59 49 49 51 50 48 50 53 51 53 55 56 56 59 61 61 59 58 57 56 55 53 54 58 63 65 62 57 54 52 50 53 57 58 57 55 55 54 49 44 46 47 46 44 42 39 38 36
46 45 39 32 30 37 40 39 42 43 40 33 35 40 35 36 36 42 49 54 56 54 57 57 58 58 57 54 59 65 64 61 62 55 57 53 51 45 40 50 52 57 57 56 54 55 54 55 57 59 59 58 57 56 57 62 61 59 57 55 55 55 54 55 56 58 62 60 58 54 52 53 57 57 57 58 58 56 53 50 47 47 48 46 43 40 37
44 47 49 47 37 29 33 39 45 51 55 52 44 38 35 35 33 34 40 47 51 50 49 52 54 56 55 52 53 59 65 63 62 57 63 59 61 51 32 51 54 54 57 60 60 59 60 59 59 61 62 62 64 63 61 60 62 64 62 60 57 57 58 59 60 59 59 62 62 62 58 57 55 53 51 53 56 59 56 52 50 48 50 48 44 42 37
48 45 46 52 50 40 30 30 42 56 61 61 60 56 50 43 40 37 37 43 47 47 47 46 46 46 48 50 50 50 53 55 53 51 54 58 58 59 52 53 55 58 58 57 55 57 60 60 61 63 65 65 66 65 65 64 64 65 66 66 65 62 60 59 59 60 58 58 60 62 63 62 59 57 54 52 50 54 55 59 59 52 49 48 45 41 39
59 55 49 48 50 49 44 38 35 41 48 59 62 62 56 53 50 48 48 47 47 44 44 49 52 51 49 48 47 45 44 45 47 43 48 50 60 61 54 53 51 52 51 52 52 54 57 60 61 63 63 64 64 61 60 59 60 61 63 65 67 71 74 71 67 65 64 62 61 60 61 63 65 65 62 60 55 52 52 53 52 50 49 49 47 43 39
40 54 54 50 51 50 48 46 46 43 40 43 49 60 62 61 59 54 50 51 53 51 47 43 45 45 44 43 44 44 45 46 58 48 31 45 47 53 56 54 54 54 51 47 48 47 53 57 57 60 63 64 62 59 57 56 55 56 56 57 56 55 57 65 73 77 78 77 76 78 78 75 70 67 67 67 64 61 58 58 57 55 51 48 48 46 43
17 39 58 52 47 47 51 49 49 51 47 39 40 41 42 53 56 53 50 49 49 48 47 45 42 41 40 40 39 35 38 38 49 58 45 46 50 54 56 57 55 51 48 49 46 47 51 57 56 53 55 61 61 61 58 56 53 52 51 51 53 52 53 56 53 51 52 58 64 71 77 80 80 81 82 81 82 79 74 70 68 65 64 60 56 52 52
15 22 35 46 52 46 43 54 59 56 57 59 56 45 34 43 59 61 58 54 54 55 50 46 44 43 40 37 32 33 29 35 38 43 45 53 60 58 55 58 56 53 50 45 44 45 44 48 55 58 57 56 58 60 61 60 58 55 52 48 46 49 49 52 57 55 52 50 49 49 53 58 72 79 86 90 91 90 89 88 91 90 86 80 75 69 63
16 24 29 34 34 42 46 44 41 47 73 75 64 57 54 46 53 67 72 70 61 62 57 50 43 42 45 43 37 36 33 32 43 51 44 41 46 65 67 59 55 54 48 44 41 40 41 47 51 49 52 55 60 60 60 60 61 56 53 52 52 49 48 47 52 55 55 52 50 47 46 48 48 50 57 71 88 98 96 99 97 100 95 94 93 90 83
36 21 31 30 28 30 27 28 34 35 24 33 78 77 65 61 51 44 61 81 86 78 63 61 58 45 41 43 45 36 38 48 43 39 42 44 48 46 58 60 55 48 44 44 41 35 37 39 48 54 52 51 54 57 56 55 55 54 51 50 49 49 48 46 48 52 52 48 50 49 47 45 45 44 41 40 49 64 73 83 104 117 119 115 107 105 102